Date String (YYYY-MM-DD hh:mm:ss) UTC,Instrument flags,absolute air pressure of the measurement (hPa),sample flow rate (lpm),inlet stack bypass flow (lpm),air temperature of the measurement (°C),ambient temperature measured by the external sensor (°C),aerosol sample conditioner tube jacket temperature (°C),OPC LED temperature (°C),internal box temperature (°C),relative humidity of the measurement (%),span deviation,mass concentration of particles derived from Lorenz-Mie calculation of OPC scattering (μg/m³),mass concentration of particles derived from Lorenz-Mie calculation of OPC scattering (μg/m³),mass concentration of particles derived from Lorenz-Mie calculation of OPC scattering (μg/m³)
DateTimeUTC,F1_M11,P_M11,Q1_M11,Q2_M11,T1_M11,T2_M11,T3_M11,T4_M11,T5_M11,U1_M11,ZSPAN_M11,X2_M11,X0_M11,X1_M11
2023-08-05 16:00:00,SystemResetWarning,0835.2,4.98,000.00,029.3,027.7,000.0,037.7,031.0,33.3,-001.3,0005.75,0011.11,0005.22
2023-08-05 16:01:00,SystemResetWarning,0835.1,5.00,000.00,029.2,026.1,000.0,037.5,030.7,33.4,-001.7,0005.76,0011.41,0005.20
2023-08-05 16:02:00,SystemResetWarning,0835.1,5.00,000.00,029.2,025.0,000.0,037.4,030.5,34.4,-001.8,0005.76,0011.18,0005.18
2023-08-05 16:03:00,SystemResetWarning,0835.1,5.01,000.00,029.1,025.0,000.0,037.4,030.3,34.2,-001.8,0005.76,0011.21,0005.17
2023-08-05 16:04:00,SystemResetWarning,0835.1,5.00,000.00,029.0,025.3,000.0,037.4,030.3,34.3,-000.7,0005.77,0011.16,0005.15
2023-08-05 16:05:00,SystemResetWarning,0835.2,5.00,000.00,029.0,025.7,000.0,037.5,030.4,34.0,0000.0,0005.77,0011.21,0005.15
2023-08-05 16:06:00,SystemResetWarning,0835.2,4.99,000.00,029.0,026.2,000.0,037.5,030.5,34.4,-000.6,0005.79,0011.55,0005.14
2023-08-05 16:07:00,SystemResetWarning,0835.1,4.99,000.00,029.0,026.6,000.0,037.5,030.6,34.0,0000.0,0005.77,0011.46,0005.13
2023-08-05 16:08:00,SystemResetWarning,0835.1,5.01,000.00,029.0,026.9,000.0,037.5,030.7,34.4,0000.0,0005.76,0011.54,0005.14
2023-08-05 16:09:00,SystemResetWarning,0835.1,5.01,000.00,029.0,027.2,000.0,037.5,030.8,34.5,0000.0,0005.68,0011.37,0005.13
2023-08-05 16:10:00,SystemResetWarning,0835.1,5.00,000.00,029.1,027.5,000.0,037.6,030.8,33.9,0000.0,0005.67,0011.32,0005.14
2023-08-05 16:11:00,SystemResetWarning,0835.1,5.00,000.00,029.1,027.7,000.0,037.6,030.9,34.3,0000.0,0005.65,0010.58,0005.14
2023-08-05 16:12:00,SystemResetWarning,0835.1,4.99,000.00,029.2,027.8,000.0,037.6,030.9,34.8,0000.0,0005.67,0010.22,0005.15
2023-08-05 16:13:00,SystemResetWarning,0835.1,5.01,000.00,029.2,028.0,000.0,037.6,031.0,33.9,0000.0,0005.72,0010.22,0005.16
2023-08-05 16:14:00,SystemResetWarning,0835.0,5.00,000.00,029.3,027.5,000.0,037.6,031.0,33.9,0000.0,0005.71,0010.29,0005.17
2023-08-05 16:15:00,SystemResetWarning,0835.0,4.99,000.00,029.3,025.9,000.0,037.5,030.6,34.2,0000.0,0005.70,0010.32,0005.18
2023-08-05 16:16:00,SystemResetWarning,0835.0,5.00,000.00,029.2,025.0,000.0,037.4,030.4,34.4,0000.0,0005.70,0010.55,0005.19
2023-08-05 16:17:00,SystemResetWarning,0835.0,5.01,000.00,029.1,025.0,000.0,037.4,030.3,34.3,0000.0,0005.70,0010.53,0005.21
2023-08-05 16:18:00,SystemResetWarning,0835.0,4.99,000.00,029.0,025.4,000.0,037.4,030.3,34.9,0000.0,0005.72,0011.01,0005.24
2023-08-05 16:19:00,SystemResetWarning,0835.0,5.03,000.00,029.1,025.8,000.0,037.5,030.4,35.0,0000.0,0005.76,0011.61,0005.26
2023-08-05 16:20:00,SystemResetWarning,0835.0,4.97,000.00,029.3,026.2,000.0,037.5,030.6,34.1,0000.0,0005.79,0012.08,0005.28
2023-08-05 16:21:00,SystemResetWarning,0835.0,5.02,000.00,029.4,026.6,000.0,037.5,030.7,33.6,0000.0,0005.83,0012.07,0005.31
2023-08-05 16:22:00,SystemResetWarning,0835.0,5.00,000.00,029.5,026.9,000.0,037.6,030.8,33.2,0000.0,0005.90,0012.40,0005.34
2023-08-05 16:23:00,SystemResetWarning,0835.1,4.99,000.00,029.5,027.2,000.0,037.6,030.9,33.0,0000.0,0005.93,0012.58,0005.37
2023-08-05 16:24:00,SystemResetWarning,0835.1,4.99,000.00,029.6,027.5,000.0,037.7,030.9,33.1,0000.0,0005.96,0012.81,0005.40
2023-08-05 16:25:00,SystemResetWarning,0835.1,4.99,000.00,029.6,027.7,000.0,037.7,031.0,33.0,0000.0,0006.00,0012.93,0005.44
2023-08-05 16:26:00,SystemResetWarning,0835.1,5.00,000.00,029.7,027.9,000.0,037.8,031.0,33.0,0000.0,0006.02,0012.94,0005.48
2023-08-05 16:27:00,SystemResetWarning,0835.1,5.01,000.00,029.7,028.0,000.0,037.9,031.1,33.0,0000.0,0006.09,0012.90,0005.51
2023-08-05 16:28:00,SystemResetWarning,0835.1,5.00,000.00,029.8,027.4,000.0,037.8,031.0,33.5,0000.0,0006.11,0012.57,0005.53
2023-08-05 16:29:00,SystemResetWarning,0835.1,4.99,000.00,029.7,025.9,000.0,037.7,030.7,33.0,0000.0,0006.17,0012.19,0005.55
2023-08-05 16:30:00,SystemResetWarning,0835.1,5.00,000.00,029.7,025.2,000.0,037.6,030.6,32.9,0000.0,0006.19,0011.70,0005.57
2023-08-05 16:31:00,SystemResetWarning,0835.1,5.01,000.00,029.6,025.3,000.0,037.7,030.4,33.0,-001.2,0006.23,0011.94,0005.59
2023-08-05 16:32:00,SystemResetWarning,0835.0,5.02,000.00,029.5,025.6,000.0,037.7,030.4,33.8,-000.8,0006.24,0012.06,0005.60
2023-08-05 16:33:00,SystemResetWarning,0835.0,5.00,000.00,029.5,026.1,000.0,037.8,030.6,33.7,-000.7,0006.27,0011.32,0005.61
2023-08-05 16:34:00,SystemResetWarning,0835.0,5.00,000.00,029.5,026.5,000.0,037.8,030.7,33.8,-000.7,0006.25,0011.14,0005.63
2023-08-05 16:35:00,SystemResetWarning,0835.1,5.00,000.00,029.5,026.8,000.0,037.8,030.8,33.5,0000.0,0006.25,0011.10,0005.63
2023-08-05 16:36:00,SystemResetWarning,0835.1,4.99,000.00,029.5,027.2,000.0,037.8,030.8,33.6,0000.0,0006.25,0010.89,0005.63
2023-08-05 16:37:00,SystemResetWarning,0835.1,5.00,000.00,029.5,027.4,000.0,037.9,030.9,33.8,0000.0,0006.27,0010.89,0005.62
2023-08-05 16:38:00,SystemResetWarning,0835.1,5.00,000.00,029.5,027.7,000.0,037.9,031.0,33.6,0000.0,0006.27,0010.81,0005.63
2023-08-05 16:39:00,SystemResetWarning,0835.0,5.00,000.00,029.6,027.9,000.0,037.9,031.0,33.3,0000.0,0006.30,0011.65,0005.64
2023-08-05 16:40:00,SystemResetWarning,0835.0,4.99,000.00,029.6,027.7,000.0,037.9,031.0,33.0,0000.0,0006.25,0011.54,0005.65
2023-08-05 16:41:00,SystemResetWarning,0834.9,4.99,000.00,029.6,026.2,000.0,037.8,030.8,33.3,0000.0,0006.21,0011.41,0005.66
2023-08-05 16:42:00,SystemResetWarning,0834.9,5.01,000.00,029.5,025.3,000.0,037.7,030.6,33.1,0000.0,0006.21,0010.70,0005.66
2023-08-05 16:43:00,SystemResetWarning,0834.9,5.01,000.00,029.4,025.3,000.0,037.6,030.4,34.0,0000.0,0006.26,0010.46,0005.69
2023-08-05 16:44:00,SystemResetWarning,0834.9,4.97,000.00,029.3,025.6,000.0,037.7,030.4,35.1,0000.0,0006.28,0010.41,0005.73
2023-08-05 16:45:00,SystemResetWarning,0834.9,5.04,000.00,029.4,026.0,000.0,037.7,030.6,34.2,0000.0,0006.34,0010.53,0005.77
2023-08-05 16:46:00,SystemResetWarning,0834.9,4.97,000.00,029.5,026.4,000.0,037.7,030.7,34.0,0000.0,0006.38,0010.44,0005.80
2023-08-05 16:47:00,SystemResetWarning,0835.0,5.03,000.00,029.6,026.8,000.0,037.8,030.8,34.2,0000.0,0006.41,0010.60,0005.83
2023-08-05 16:48:00,SystemResetWarning,0835.0,4.99,000.00,029.7,027.1,000.0,037.8,030.9,34.0,0000.0,0006.47,0010.67,0005.86
2023-08-05 16:49:00,SystemResetWarning,0835.0,4.99,000.00,029.7,027.4,000.0,037.9,031.0,33.3,0000.0,0006.49,0010.68,0005.87
2023-08-05 16:50:00,SystemResetWarning,0835.0,5.00,000.00,029.8,027.6,000.0,037.9,031.0,31.3,-000.1,0006.50,0009.88,0005.88
2023-08-05 16:51:00,SystemResetWarning,0835.0,5.00,000.00,029.8,027.8,000.0,038.0,031.1,32.2,-000.5,0006.55,0010.65,0005.90
2023-08-05 16:52:00,SystemResetWarning,0835.0,4.99,000.00,029.9,027.3,000.0,037.9,031.0,33.4,-000.7,0006.66,0011.11,0005.95
2023-08-05 16:53:00,SystemResetWarning,0835.3,5.00,000.00,029.8,025.7,000.0,037.8,030.7,33.9,-000.3,0006.70,0011.21,0005.98
2023-08-05 16:54:00,SystemResetWarning,0834.9,5.02,000.00,029.8,025.1,000.0,037.7,030.6,34.0,-000.0,0006.68,0011.46,0005.98
2023-08-05 16:55:00,SystemResetWarning,0834.8,4.99,000.00,029.7,025.2,000.0,037.7,030.4,34.9,0000.1,0006.68,0011.43,0005.99
2023-08-05 16:56:00,SystemResetWarning,0834.8,5.01,000.00,029.6,025.5,000.0,037.8,030.4,33.8,-000.4,0006.65,0011.39,0005.98
2023-08-05 16:57:00,SystemResetWarning,0834.7,4.99,000.00,029.6,025.9,000.0,037.8,030.6,34.1,-000.4,0006.60,0011.20,0005.97
2023-08-05 16:58:00,SystemResetWarning,0834.8,5.00,000.00,029.7,026.3,000.0,037.9,030.7,34.5,-000.9,0006.62,0011.17,0005.98
2023-08-05 16:59:00,SystemResetWarning,0835.0,5.01,000.00,029.7,026.7,000.0,037.9,030.8,34.5,-001.2,0006.59,0011.21,0005.99
